EW1423 Weather Reports


Display with metric or nautical units.
time (UTC)temp
F
wind
direction
speed
MPH
gust
MPH
rain 1hr
in
rain 24hr
in
rain mn
in
humidity
%
barometer
mb
20260510204803 57 138 1.0 2.0 0.03 0.16 0.16 99 1007.5
20260510204304 57 138 0.0 2.0 0.05 0.16 0.16 100 1007.7
20260510203804 57 138 0.0 1.0 0.06 0.16 0.16 99 1007.7
20260510203303 57 138 0.0 1.0 0.06 0.16 0.16 100 1007.9
20260510202803 57 138 0.0 0.0 0.06 0.15 0.15 99 1007.9
20260510202306 57 138 0.0 1.0 0.06 0.15 0.15 99 1007.9
20260510201804 58 138 0.0 1.0 0.06 0.15 0.15 99 1008.1
20260510201304 58 138 0.0 1.0 0.06 0.15 0.15 99 1008.1
20260510200803 58 138 0.0 0.0 0.06 0.15 0.15 99 1008.1
20260510200303 58 138 0.0 1.0 0.05 0.14 0.14 99 1008.1
20260510195804 58 138 0.0 1.0 0.05 0.14 0.14 99 1007.4
20260510195306 58 138 0.0 1.0 0.04 0.13 0.13 98 1007.4
20260510194804 58 138 0.0 1.0 0.03 0.13 0.13 97 1007.4
20260510194303 58 138 0.0 1.0 0.02 0.11 0.11 96 1007.4
20260510193803 58 138 0.0 2.0 0.01 0.10 0.10 96 1007.4
20260510192306 58 110 0.0 2.0 0.00 0.09 0.09 96 1007.4
20260510191804 59 110 0.0 1.0 0.00 0.09 0.09 95 1007.4
20260510191304 59 110 0.0 1.0 0.00 0.09 0.09 96 1006.8
20260510190804 59 110 0.0 2.0 0.00 0.09 0.09 95 1006.8
20260510185804 59 155 1.0 2.0 0.00 0.09 0.09 97 1006.8
20260510185305 59 161 0.0 1.0 0.00 0.09 0.09 97 1006.8
20260510184804 59 161 0.0 2.0 0.00 0.09 0.09 97 1006.8
20260510184304 59 161 0.0 1.0 0.01 0.09 0.09 97 1006.8
20260510183804 59 161 0.0 2.0 0.08 0.09 0.09 96 1006.8
20260510183303 59 161 0.0 1.0 0.09 0.09 0.09 97 1006.8
20260510182803 59 161 0.0 1.0 0.09 0.09 0.09 96 1006.8
20260510182306 59 161 0.0 2.0 0.09 0.09 0.09 96 1006.8
20260510181804 59 161 0.0 1.0 0.09 0.09 0.09 94 1006.7
20260510181304 59 161 0.0 1.0 0.09 0.09 0.09 94 1006.7
20260510180804 59 161 1.0 2.0 0.09 0.09 0.09 94 1006.6
20260510180303 59 177 0.0 2.0 0.09 0.09 0.09 94 1006.5
20260510175803 59 169 0.0 1.0 0.09 0.09 0.09 94 1006.4
20260510175306 60 165 1.0 2.0 0.09 0.09 0.09 90 1005.4
20260510174804 60 246 1.0 5.0 0.09 0.09 0.09 87 1005.4
20260510174303 61 343 2.0 6.0 0.09 0.09 0.09 85 1005.4
20260510173803 64 108 3.0 7.0 0.02 0.02 0.02 74 1005.4
20260510172803 69 304 2.0 10.0 0.00 0.00 0.00 58 1005.4
20260510172306 71 293 3.0 8.0 0.00 0.00 0.00 56 1005.4
20260510171803 71 95 0.0 1.0 0.00 0.00 0.00 56 1005.4
20260510170304 72 95 0.0 2.0 0.00 0.00 0.00 56 1005.4
20260510165306 72 95 0.0 1.0 0.00 0.00 0.00 55 1005.4
20260510164804 72 95 0.0 2.0 0.00 0.00 0.00 54 1005.4
20260510164304 73 95 0.0 1.0 0.00 0.00 0.00 56 1005.4
20260510163804 73 41 1.0 3.0 0.00 0.00 0.00 53 1005.4
20260510162804 73 86 1.0 3.0 0.00 0.00 0.00 52 1005.6
20260510162306 74 84 1.0 3.0 0.00 0.00 0.00 52 1005.6
20260510161804 74 100 1.0 3.0 0.00 0.00 0.00 52 1005.6
20260510161304 74 59 1.0 3.0 0.00 0.00 0.00 52 1005.6
20260510155803 74 38 1.0 3.0 0.00 0.00 0.00 51 1006.4
20260510155305 74 74 2.0 5.0 0.00 0.00 0.00 51 1006.4
20260510154804 75 93 2.0 9.0 0.00 0.00 0.00 50 1006.4
20260510153803 76 104 2.0 5.0 0.00 0.00 0.00 50 1006.4
20260510152804 77 130 2.0 6.0 0.00 0.00 0.00 48 1006.4
20260510152307 77 100 2.0 5.0 0.00 0.00 0.00 48 1006.4
20260510151804 77 116 3.0 7.0 0.00 0.00 0.00 48 1006.4
20260510151303 77 98 3.0 7.0 0.00 0.00 0.00 49 1006.4
20260510150803 77 74 1.0 7.0 0.00 0.00 0.00 49 1006.6
20260510145804 77 71 3.0 6.0 0.00 0.00 0.00 48 1006.6
20260510144819 76 92 1.0 3.0 0.00 0.00 0.00 52 1006.8
20260510144303 76 93 1.0 7.0 0.00 0.00 0.00 51 1006.9
20260510143803 76 145 2.0 7.0 0.00 0.00 0.00 50 1006.9
20260510143304 76 130 1.0 6.0 0.00 0.00 0.00 50 1006.9
20260510142804 76 76 2.0 5.0 0.00 0.00 0.00 50 1006.9
20260510142306 76 136 2.0 5.0 0.00 0.00 0.00 50 1007.2
20260510141803 76 129 1.0 5.0 0.00 0.00 0.00 50 1007.2
20260510141304 76 131 2.0 5.0 0.00 0.00 0.00 50 1007.2
20260510140804 76 59 3.0 6.0 0.00 0.00 0.00 51 1007.2
20260510140303 76 71 2.0 5.0 0.00 0.00 0.00 49 1007.2
20260510135804 76 97 2.0 7.0 0.00 0.00 0.00 48 1007.3
20260510135306 76 67 1.0 3.0 0.00 0.00 0.00 47 1007.3
20260510134804 76 115 2.0 5.0 0.00 0.00 0.00 49 1007.3
20260510133804 76 92 2.0 5.0 0.00 0.00 0.00 48 1007.3
20260510132804 76 113 1.0 6.0 0.00 0.00 0.00 48 1007.9
20260510132306 76 110 2.0 6.0 0.00 0.00 0.00 48 1007.9
20260510131804 77 134 2.0 5.0 0.00 0.00 0.00 47 1007.9
20260510130804 77 129 2.0 6.0 0.00 0.00 0.00 44 1007.9
20260510130304 77 114 2.0 5.0 0.00 0.00 0.00 44 1007.9
20260510125804 78 85 1.0 10.0 0.00 0.00 0.00 46 1007.9
20260510125306 78 117 2.0 5.0 0.00 0.00 0.00 44 1007.9
20260510123803 78 124 2.0 7.0 0.00 0.00 0.00 40 1007.9
20260510123304 79 157 2.0 10.0 0.00 0.00 0.00 39 1008.1
20260510122804 79 158 3.0 9.0 0.00 0.00 0.00 39 1008.1
20260510122306 79 121 3.0 8.0 0.00 0.00 0.00 39 1008.1
20260510121803 79 119 3.0 12.0 0.00 0.00 0.00 40 1008.1
20260510121303 79 140 3.0 8.0 0.00 0.00 0.00 39 1008.3
20260510120304 79 125 2.0 7.0 0.00 0.00 0.00 41 1008.3
20260510115803 79 103 3.0 9.0 0.00 0.00 0.00 40 1008.3
20260510115306 79 88 3.0 9.0 0.00 0.00 0.00 37 1008.4
20260510114803 79 130 5.0 10.0 0.00 0.00 0.00 38 1008.4
20260510114304 79 49 3.0 10.0 0.00 0.00 0.00 39 1008.4
20260510113804 80 70 1.0 8.0 0.00 0.00 0.00 44 1008.7
20260510112804 79 44 2.0 5.0 0.00 0.00 0.00 40 1008.7
20260510112306 79 69 2.0 6.0 0.00 0.00 0.00 42 1008.7
20260510111803 79 130 2.0 6.0 0.00 0.00 0.00 41 1009.7
20260510111303 78 115 3.0 10.0 0.00 0.00 0.00 41 1009.7
20260510110804 79 49 2.0 9.0 0.00 0.00 0.00 42 1009.7
20260510110303 79 124 4.0 10.0 0.00 0.00 0.00 39 1009.7
20260510105818 79 125 1.0 5.0 0.00 0.00 0.00 43 1009.7
20260510105306 78 101 2.0 10.0 0.00 0.00 0.00 44 1009.7
20260510104303 77 70 2.0 7.0 0.00 0.00 0.00 45 1009.7
20260510103804 78 109 2.0 10.0 0.00 0.00 0.00 44 1009.7
20260510102804 77 100 3.0 9.0 0.00 0.00 0.00 45 1009.7
20260510102306 77 132 3.0 12.0 0.00 0.00 0.00 44 1009.7
20260510101803 77 152 3.0 9.0 0.00 0.00 0.00 45 1009.7
20260510101303 77 122 3.0 6.0 0.00 0.00 0.00 46 1009.7
20260510100804 77 123 2.0 8.0 0.00 0.00 0.00 46 1009.7
20260510095803 75 109 2.0 8.0 0.00 0.00 0.00 49 1010.3
20260510095305 75 117 2.0 5.0 0.00 0.00 0.00 48 1010.3
20260510094804 75 129 3.0 9.0 0.00 0.00 0.00 52 1010.3
20260510094303 75 126 3.0 13.0 0.00 0.00 0.00 50 1010.3
20260510093303 73 132 2.0 5.0 0.00 0.00 0.00 54 1010.3
20260510092804 73 92 2.0 7.0 0.00 0.00 0.00 53 1010.3
20260510092306 73 116 3.0 6.0 0.00 0.00 0.00 54 1010.3
20260510091804 73 122 2.0 6.0 0.00 0.00 0.00 53 1010.3
20260510091303 73 58 2.0 5.0 0.00 0.00 0.00 53 1010.5
20260510090304 73 41 2.0 7.0 0.00 0.00 0.00 54 1010.7
20260510085804 73 129 1.0 3.0 0.00 0.00 0.00 53 1010.7
20260510085306 73 59 2.0 8.0 0.00 0.00 0.00 56 1010.7
20260510084803 73 339 1.0 3.0 0.00 0.00 0.00 56 1010.7
20260510084303 73 346 1.0 2.0 0.00 0.00 0.00 58 1010.7
20260510083804 71 346 1.0 2.0 0.00 0.00 0.00 59 1010.7
20260510083303 71 347 1.0 2.0 0.00 0.00 0.00 60 1010.8
20260510082804 71 347 1.0 3.0 0.00 0.00 0.00 60 1010.8
20260510082306 71 319 1.0 2.0 0.00 0.00 0.00 62 1010.9
20260510081804 70 319 1.0 3.0 0.00 0.00 0.00 61 1010.9
20260510081303 70 294 0.0 2.0 0.00 0.00 0.00 63 1010.9
20260510080803 70 294 0.0 1.0 0.00 0.00 0.00 61 1010.9
20260510080304 69 294 1.0 2.0 0.00 0.00 0.00 63 1010.9
20260510075306 68 294 0.0 2.0 0.00 0.00 0.00 66 1011.1
20260510074804 68 306 1.0 3.0 0.00 0.00 0.00 65 1011.1
20260510074303 67 348 1.0 2.0 0.00 0.00 0.00 63 1011.1
20260510073804 67 349 1.0 2.0 0.00 0.00 0.00 67 1011.2
20260510072804 66 352 1.0 3.0 0.00 0.00 0.00 66 1011.2
20260510072306 66 355 0.0 2.0 0.00 0.00 0.00 66 1011.2
20260510071803 65 355 1.0 2.0 0.00 0.00 0.00 68 1011.3
20260510071304 65 355 0.0 1.0 0.00 0.00 0.00 69 1011.3
20260510070804 65 355 0.0 3.0 0.00 0.00 0.00 68 1011.3
20260510070303 65 355 0.0 1.0 0.00 0.00 0.00 69 1011.3
20260510065803 64 355 0.0 1.0 0.00 0.00 0.00 70 1011.4
20260510065306 64 355 0.0 2.0 0.00 0.00 0.00 71 1011.4
20260510064803 63 0 1.0 1.0 0.00 0.00 0.00 73 1011.4
20260510064304 63 0 0.0 1.0 0.00 0.00 0.00 74 1011.4
20260510063804 62 0 0.0 1.0 0.00 0.00 0.00 76 1011.5
20260510063303 62 0 1.0 2.0 0.00 0.00 0.00 75 1011.5
20260510062803 61 0 0.0 1.0 0.00 0.00 0.00 79 1011.5
20260510062307 60 0 0.0 1.0 0.00 0.00 0.00 81 1011.5
20260510060804 57 0 1.0 3.0 0.00 0.00 0.00 84 1011.8
20260510060304 57 355 1.0 2.0 0.00 0.00 0.00 84 1011.8
20260510055306 55 254 0.0 2.0 0.00 0.00 0.00 89 1011.8
20260510054803 54 254 0.0 1.0 0.00 0.00 0.00 92 1011.8
20260510054304 53 254 0.0 1.0 0.00 0.00 0.00 92 1011.8
20260510053303 51 254 0.0 1.0 0.00 0.00 0.00 95 1011.8
20260510052804 51 254 0.0 1.0 0.00 0.00 0.00 96 1011.8
20260510051804 50 254 0.0 1.0 0.00 0.00 0.00 99 1012.0
20260510051303 49 254 0.0 0.0 0.00 0.00 0.00 100 1012.0
20260510050804 48 254 0.0 0.0 0.00 0.00 0.00 100 1012.0
20260510050315 48 254 0.0 0.0 0.00 0.00 0.00 100 1012.0
20260510045803 47 254 0.0 0.0 0.00 0.00 0.00 100 1012.0
20260510045306 47 254 0.0 0.0 0.00 0.00 0.00 100 1012.0
20260510044804 47 254 0.0 0.0 0.00 0.00 0.00 100 1012.0
20260510044303 46 254 0.0 0.0 0.00 0.00 0.00 100 1012.0
20260510043804 46 254 0.0 0.0 0.00 0.00 0.00 100 1012.0
20260510043304 46 254 0.0 0.0 0.00 0.00 0.00 100 1012.0
20260510042804 46 254 0.0 0.0 0.00 0.00 0.00 100 1012.0
20260510042306 46 254 0.0 0.0 0.00 0.00 0.00 100 1012.1
20260510041804 46 254 0.0 0.0 0.00 0.00 0.00 100 1012.1
20260510041303 46 254 0.0 0.0 0.00 0.00 0.00 100 1012.3
20260510040803 46 254 0.0 0.0 0.00 0.00 0.00 100 1012.3
20260510040304 46 254 0.0 0.0 0.00 0.00 0.00 100 1012.3
20260510035803 46 254 0.0 0.0 0.00 0.00 0.00 100 1012.3
20260510033803 45 254 0.0 0.0 0.00 0.00 0.00 99 1012.2
20260510033303 46 254 0.0 0.0 0.00 0.00 0.00 99 1012.2
20260510032803 46 254 0.0 0.0 0.00 0.00 0.00 100 1012.2
20260510032306 46 254 0.0 0.0 0.00 0.00 0.00 100 1012.2
20260510031803 46 254 0.0 0.0 0.00 0.00 0.00 99 1012.2
20260510031304 46 254 0.0 0.0 0.00 0.00 0.00 99 1012.3
20260510030803 46 254 0.0 0.0 0.00 0.00 0.00 99 1012.3
20260510025803 47 254 0.0 0.0 0.00 0.00 0.00 99 1012.5
20260510025306 47 254 0.0 0.0 0.00 0.00 0.00 99 1012.5
20260510024803 47 254 0.0 0.0 0.00 0.00 0.00 99 1012.5
20260510024303 47 254 0.0 0.0 0.00 0.00 0.00 99 1012.5
20260510023803 47 254 0.0 0.0 0.00 0.00 0.00 99 1012.5
20260510023303 47 254 0.0 0.0 0.00 0.00 0.00 99 1012.6
20260510022804 47 254 0.0 0.0 0.00 0.00 0.00 99 1012.6
20260510022306 47 254 0.0 0.0 0.00 0.00 0.00 99 1012.6
20260510021803 47 254 0.0 0.0 0.00 0.00 0.00 98 1012.6
20260510020303 47 254 0.0 1.0 0.00 0.00 0.00 98 1012.6
20260510015804 48 254 0.0 0.0 0.00 0.00 0.00 98 1012.6
20260510015306 48 254 0.0 0.0 0.00 0.00 0.00 98 1012.8
20260510014804 48 254 0.0 0.0 0.00 0.00 0.00 97 1012.8
20260510014304 48 254 0.0 0.0 0.00 0.00 0.00 98 1013.4
20260510013804 48 254 0.0 0.0 0.00 0.00 0.00 97 1013.4
20260510013304 49 254 0.0 1.0 0.00 0.00 0.00 97 1013.4
20260510012804 49 254 0.0 0.0 0.00 0.00 0.00 97 1013.4
20260510012306 49 254 0.0 1.0 0.00 0.00 0.00 97 1013.4
20260510011804 49 254 0.0 0.0 0.00 0.00 0.00 98 1013.4
20260510011304 49 254 0.0 0.0 0.00 0.00 0.00 97 1013.4
20260510010804 49 254 0.0 0.0 0.00 0.00 0.00 98 1013.4
20260510010303 49 254 0.0 0.0 0.00 0.00 0.00 97 1013.4
20260510005804 49 254 0.0 0.0 0.00 0.00 0.00 97 1013.4
20260510005306 49 254 0.0 0.0 0.00 0.00 0.00 97 1013.4
20260510004804 49 254 0.0 0.0 0.00 0.00 0.00 97 1013.4
20260510004304 49 254 0.0 1.0 0.00 0.00 0.00 97 1013.4
20260510003803 49 254 0.0 0.0 0.00 0.00 0.00 96 1013.4
20260510003303 49 254 0.0 0.0 0.00 0.00 0.00 97 1013.4
20260510002803 49 254 0.0 0.0 0.00 0.00 0.00 97 1013.4
20260510002306 49 254 0.0 0.0 0.00 0.00 0.00 96 1013.4
20260510001804 49 254 0.0 0.0 0.00 0.00 0.00 96 1013.4
20260510000803 50 254 0.0 0.0 0.00 0.00 0.00 96 1013.6
20260510000304 50 254 0.0 0.0 0.00 0.00 0.00 96 1013.6
20260509235803 50 254 0.0 0.0 0.00 0.00 0.00 95 1013.6
20260509235306 50 254 0.0 0.0 0.00 0.00 0.00 95 1013.6
20260509234803 50 254 0.0 0.0 0.00 0.00 0.00 94 1013.8
20260509234303 51 254 0.0 0.0 0.00 0.00 0.00 94 1013.8
20260509233803 51 254 0.0 0.0 0.00 0.00 0.00 94 1013.8
20260509233303 51 254 0.0 0.0 0.00 0.00 0.00 94 1013.8
20260509232804 51 254 0.0 0.0 0.00 0.00 0.00 94 1013.9
20260509232306 51 254 0.0 0.0 0.00 0.00 0.00 94 1013.9
20260509231819 51 254 0.0 0.0 0.00 0.00 0.00 93 1013.9
20260509231304 51 254 0.0 0.0 0.00 0.00 0.00 93 1013.9
20260509230803 52 254 0.0 0.0 0.00 0.00 0.00 93 1013.9
20260509230303 52 254 0.0 0.0 0.00 0.00 0.00 93 1013.9
20260509225804 52 254 0.0 0.0 0.00 0.00 0.00 93 1013.9
20260509225306 52 254 0.0 0.0 0.00 0.00 0.00 93 1013.9
20260509224304 52 254 0.0 0.0 0.00 0.00 0.00 92 1013.9
20260509223804 52 254 0.0 0.0 0.00 0.00 0.00 92 1013.9
20260509223303 53 254 0.0 0.0 0.00 0.00 0.00 91 1013.9
20260509222804 53 254 0.0 0.0 0.00 0.00 0.00 91 1013.9
20260509222306 53 254 0.0 0.0 0.00 0.00 0.00 91 1013.9
20260509221803 53 254 0.0 0.0 0.00 0.00 0.00 91 1013.9
20260509221304 53 254 0.0 0.0 0.00 0.00 0.00 91 1013.9
20260509220810 53 254 0.0 0.0 0.00 0.00 0.00 90 1013.9
20260509220304 54 254 0.0 0.0 0.00 0.00 0.00 90 1013.8
20260509215803 54 254 0.0 0.0 0.00 0.00 0.00 90 1013.8
20260509215306 54 254 0.0 0.0 0.00 0.00 0.00 90 1013.8
20260509214804 54 254 0.0 0.0 0.00 0.00 0.00 89 1013.8
20260509214303 54 254 0.0 0.0 0.00 0.00 0.00 89 1013.8
20260509213804 55 254 0.0 0.0 0.00 0.00 0.00 89 1013.8
20260509212803 55 254 0.0 0.0 0.00 0.00 0.00 88 1013.8
20260509212306 55 254 0.0 0.0 0.00 0.00 0.00 86 1013.8
20260509211304 56 254 0.0 0.0 0.00 0.00 0.00 85 1013.8
20260509210804 57 254 0.0 0.0 0.00 0.00 0.00 84 1013.9
20260509210318 57 254 0.0 0.0 0.00 0.00 0.00 83 1013.9
20260509205804 57 254 0.0 0.0 0.00 0.00 0.00 82 1013.9